Location: Newark
(22.3060°N, 114.2134°E)
Time: 00:22:54
(UTC+00:00)

Vanguard 1 - Visible Passes

Search period start: 29 July 2021 00:00
Search period end: 08 August 2021 00:00
Orbit: 651 x 3831 km, 34.2° (Epoch: 28 July)

Date Brightness Start Highest point End Pass type
(mag) Time Alt. Az. Time Alt. Az. Time Alt. Az.
29 Jul 13.9 12:40:16 10° W 12:54:34 25° SW 13:11:26 10° S visible
30 Jul 14.0 13:04:49 10° WSW 13:16:32 18° SW 13:29:36 10° S visible
31 Jul 13.5 10:57:19 10° W 11:11:13 39° SW 11:31:15 10° SSE visible
31 Jul 14.2 13:33:08 10° SW 13:38:47 11° SW 13:44:41 10° SSW visible
01 Aug 13.7 11:19:40 10° W 11:32:57 30° SW 11:51:02 10° SSE visible
02 Aug 13.9 11:42:51 10° WSW 11:54:51 22° SW 12:10:07 10° S visible
03 Aug 14.1 12:07:38 10° WSW 12:16:59 15° SW 12:27:56 10° S visible
06 Aug 12.3 20:59:51 10° S 21:04:15 15° SSE 21:07:43 10° ESE visible
07 Aug 14.1 11:12:06 10° SW 11:17:59 12° SSW 11:24:44 10° S visible
07 Aug 11.8 21:19:10 10° SSW 21:25:37 24° SSE 21:30:06 10° E visible
